Flight Track Log - Related Links

Times and Time Zones

All times are in EDT time to prevent confusion due to time zone crossing. See the N1944E flight status page for this flight to view local times or setup timezone preferences in your user account.

Time Position Orientation Groundspeed Altitude Reporting Facility
EDT Latitude Longitude Course Direction KTS MPH feet Rate Location/Type
03:20PM 43.5508 -110.7778 214° Southwest 127 146 8,300  Level Salt Lake Center
03:21PM 43.5114 -110.8067 208° Southwest 131 151 9,200 919 Climbing Salt Lake Center
03:22PM 43.4744 -110.8256 200° South 136 157 10,200 919 Climbing Salt Lake Center
03:23PM 43.8009 -110.3826 53° Northeast  Level Estimated
03:23PM 43.4378 -110.8467 203° Southwest 141 162 11,100  Level Salt Lake Center
03:24PM 43.8331 -110.3232 53° Northeast  Level Estimated
03:24PM 43.4003 -110.8717 206° Southwest 147 169 11,900  Level Salt Lake Center
03:25PM 43.3653 -110.8967 207° Southwest 144 166 13,000 823 Climbing Salt Lake Center
03:26PM 43.3244 -110.9000 183° South 168 193 13,600 823 Climbing Salt Lake Center
03:27PM 43.3553 -110.8311 58° Northeast 177 204 14,700 1,161 Climbing Salt Lake Center
03:28PM 43.3919 -110.7861 42° Northeast 176 203 16,000 1,016 Climbing Salt Lake Center
03:29PM 43.4281 -110.7403 43° Northeast 178 205 16,800 484 Climbing Salt Lake Center
03:30PM 43.4636 -110.6825 50° Northeast 200 230 17,000 97 Climbing Salt Lake Center
03:31PM 43.5033 -110.6211 48° Northeast 215 247 17,000 -48 Level Salt Lake Center
03:32PM 43.5506 -110.5497 48° Northeast 213 245 16,900  Descending Salt Lake Center
03:33PM 43.5886 -110.4875 50° Northeast 214 246 17,000 97 Climbing Salt Lake Center
03:35PM 43.6289 -110.4261 48° Northeast 216 249 17,100 48 Climbing Salt Lake Center
03:36PM 43.6706 -110.3672 46° Northeast 216 249 17,100 -48 Level Salt Lake Center
03:37PM 43.7128 -110.3056 47° Northeast 221 254 17,000 -48 Descending Salt Lake Center
03:38PM 43.7578 -110.2264 52° Northeast 221 254 17,000 -48 Level Salt Lake Center
03:39PM 43.7989 -110.1667 46° Northeast 215 247 16,900 -97 Descending Salt Lake Center
03:40PM 43.8397 -110.1053 47° Northeast 216 249 16,800 -48 Descending Salt Lake Center
03:41PM 43.8808 -110.0433 47° Northeast 217 250 16,800  Level Salt Lake Center
03:42PM 43.9250 -109.9769 47° Northeast 211 243 16,800  Level Salt Lake Center
03:43PM 43.9653 -109.9192 46° Northeast 215 247 16,800 48 Level Salt Lake Center
03:44PM 44.0089 -109.8497 49° Northeast 215 247 16,900 -435 Climbing Salt Lake Center
03:45PM 44.0492 -109.7864 48° Northeast 221 254 15,900 -968 Descending Salt Lake Center

Login

Don't have an account? Register now (free) for customized features, flight alerts, and more!